Regional Weather Roundup
Issued by NWS

Home | Current Version | Previous Version | Graphics & Text | Print | Product List | Glossary On
Versions: 1 2 3 4 5 6 7 8 9 10 11 12 13 14 15 16 17 18 19 20 21 22 23 24 25 26 27 28 29 30 31 32 33 34 35 36 37 38 39 40 41 42 43 44 45 46 47 48 49 50
682
ASUS43 KMPX 230201
RWRMN
WEATHER ROUNDUP FOR MINNESOTA
NATIONAL WEATHER SERVICE TWIN CITIES/CHANHASSEN MN
900 PM CDT SAT JUL 22 2017


NOTE: "FAIR" INDICATES FEW OR NO CLOUDS BELOW 12,000 FEET WITH NO
SIGNIFICANT WEATHER AND/OR OBSTRUCTIONS TO VISIBILITY. N/A MEANS
CURRENT SKY AND/OR WEATHER CONDITIONS ARE NOT AVAILABLE.

MNZ060>063-068>070-230300-
   Twin Cities Metro

CITY           SKY/WX    TMP DP  RH WIND       PRES   REMARKS
TWIN CITIES    PTCLDY    83  60  45 NW15G24   29.83R
ST PAUL        PTCLDY    81  62  52 NW8       29.82R
CRYSTAL        CLEAR     80  57  45 NW8       29.82R
BLAINE         CLEAR     81  64  57 NW7       29.83R
LAKEVILLE      CLEAR     75  64  69 W5        29.84R
EDEN PRAIRIE   CLEAR     82  60  47 NW7       29.83R
SOUTH ST PAUL  PTCLDY    83  60  46 N8        29.82R
LAKE ELMO      FAIR      79  63  57 NW3       29.84R
$$
MNZ001>005-007-008-013>017-022>024-027-028-230300-
   Northwest Minnesota

CITY           SKY/WX    TMP DP  RH WIND       PRES   REMARKS
BEMIDJI        CLOUDY    69  56  61 NW14      29.85S
HALLOCK        CLOUDY    64  63  94 NW8       29.85F
ROSEAU         CLEAR     64  59  82 W6        29.84R
WARROAD        CLOUDY    63  57  82 W5        29.83S
CROOKSTON      CLEAR     66  61  82 N6        29.88R
FOSSTON        CLOUDY    66  55  68 NW8       29.87S
DETROIT LAKES  PTCLDY    72  57  60 N10       29.89R
MOORHEAD       CLEAR     72  57  60 N15       29.87S
PARK RAPIDS    CLEAR     71  55  56 NW8       29.86R
MAHNOMEN       CLOUDY    69  55  61 NW9       29.87S
$$
MNZ006-009>011-018-025>026-230300-
   North Central Minnesota

CITY           SKY/WX    TMP DP  RH WIND       PRES   REMARKS
BAUDETTE       CLOUDY    63  62  97 NW7       29.81R
FLAG ISLAND    MOCLDY    64  59  82 NW13      29.80R HAZE
INTL FALLS     CLOUDY    67  58  72 W6        29.80R
WASKISH        CLOUDY    66  59  77 W10G17    29.82S
BIG FORK       CLOUDY    70  55  60 SW8       29.82R
LONGVILLE      CLOUDY    72  54  53 W5        29.84F
GRAND RAPIDS   LGT RAIN  73  54  51 W9        29.85R
CRANE LAKE     CLEAR     70  55  60 CALM      29.81R
ORR            CLOUDY    70  52  52 W3        29.78R
COOK           CLEAR     68  55  64 W3        29.81R
WALKER         CLOUDY    68  55  62 W5        29.85S
$$
MNZ012-019>021-037-230300-
   Northeast Minnesota

CITY           SKY/WX    TMP DP  RH WIND       PRES   REMARKS
DULUTH         PTCLDY    56  55  97 SE6       29.83R
ELY            CLEAR     64  63  94 CALM      29.80S
HIBBING        CLEAR     66  56  70 W6        29.81R
EVELETH        CLEAR     73  46  38 NW5       29.82R
DULUTH HARBOR  CLOUDY    57  55  94 NE7       29.83F
TWO HARBORS    CLEAR     61  55  82 CALM      29.81R
SILVER BAY     CLEAR     57  55  94 CALM      29.81R
GRAND MARAIS     N/A     56  53  90 CALM      29.82F
G MARAIS ARPRT CLOUDY    57  50  77 N8        29.85R
$$
MNZ029>031-032-039>041-046>048-054>057-064-230300-
   West Central Minnesota

CITY           SKY/WX    TMP DP  RH WIND       PRES   REMARKS
FERGUS FALLS   PTCLDY    72  63  73 N5        29.85R
WHEATON        CLEAR     73  61  64 N3        29.87R
MORRIS         CLEAR     75  63  64 NE3       29.85S
ALEXANDRIA     PTCLDY    74  60  61 NW3       29.87F
ELBOW LAKE     MOCLDY    73  63  71 CALM      29.86S
WADENA         MOCLDY    70  63  78 NW3       29.86S
GLENWOOD       CLEAR     73  63  68 CALM      29.87S
BENSON         CLEAR     73  63  68 CALM      29.87S
ORTONVILLE     CLEAR     77  66  69 E5        29.85S
MADISON        CLEAR     81  70  69 CALM      29.85F
WILLMAR        FAIR      75  66  73 CALM      29.87F
$$
MNZ033>034-036-042>043-049>051-058-059-230300-
   Central Minnesota

CITY           SKY/WX    TMP DP  RH WIND       PRES   REMARKS
ST CLOUD       CLEAR     75  62  64 N5        29.84F
SAUK CENTRE    FAIR      73  57  56 CALM      29.85F
PAYNESVILLE    CLEAR     73  64  72 CALM      29.87S
AITKIN         CLEAR     72  52  49 W3        29.83S
PINE RIVER     CLEAR     73  55  53 NW6       29.88S
BRAINERD       CLEAR     74  52  46 W6        29.84S
STAPLES        PTCLDY    70  57  64 CALM      29.86S
LONG PRAIRIE   FAIR      72  63  73 CALM      29.86F
LITTLE FALLS   CLEAR     70  55  60 CALM      29.85F
LITCHFIELD     CLEAR     77  64  65 NW3       29.86S
BUFFALO        CLEAR     80  57  45 W5        29.85S
MAPLE LAKE     CLEAR     76  61  59 W3        29.86S
HUTCHINSON     CLOUDY    75  65  71 NW3       29.87S
$$
MNZ037-044-045-052-053-230300-
   East Central Minnesota

CITY           SKY/WX    TMP DP  RH WIND       PRES   REMARKS
PRINCETON      CLEAR     75  61  60 CALM      29.84S
MORA           CLEAR     73  55  53 W3        29.85S
CAMBRIDGE      CLEAR     77  61  57 W3        29.82S
RUSH CITY      CLEAR     73  65  76 CALM      29.83S
MOOSE LAKE     CLEAR     70  55  60 W3        29.81R
HINCKLEY       FAIR      73  59  60 W3        29.83R
CLOQUET        PTCLDY    61  55  82 E5        29.83R
MCGREGOR       CLEAR     72  52  49 W6        29.84R
$$
MNZ071>073-080-081-089-090-097-098-230300-
   Southwest Minnesota

CITY           SKY/WX    TMP DP  RH WIND       PRES   REMARKS
MONTEVIDEO     CLEAR     75  63  64 CALM      29.86S
GRANITE FALLS  CLEAR     77  67  72 CALM      29.87S
CANBY          CLEAR     80  62  53 CALM      29.88S
MARSHALL       CLEAR     76  67  73 W7        29.88S
REDWOOD FALLS  CLEAR     79  67  66 N3        29.85S
OLIVIA         CLEAR     77  64  65 CALM      29.86S
PIPESTONE      CLEAR     81  61  50 CALM      29.92S
WINDOM         CLEAR     77  66  69 W10       29.89R
WORTHINGTON    CLEAR     74  66  76 W8        29.91S
JACKSON        CLEAR     77  68  73 CALM      29.91R
SLAYTON        CLEAR     75  64  68 W5        29.92S
$$
MNZ065>067-074>077-082>085-091>093-230300-
   South Central Minnesota

CITY           SKY/WX    TMP DP  RH WIND       PRES   REMARKS
MANKATO        CLEAR     78  67  68 NW6       29.85S
NEW ULM        CLEAR     79  66  65 N5        29.86R
ST JAMES       CLEAR     75  72  88 W5        29.87S
FAIRMONT       CLEAR     77  71  82 NW3       29.88R
GLENCOE        CLEAR     78  67  69 NW3       29.85R
FARIBAULT      CLEAR     77  66  69 CALM      29.85R
OWATONNA       CLEAR     75  70  83 W6        29.85R
WASECA         CLEAR     72  68  88 W5        29.87R
ALBERT LEA     CLEAR     79  68  69 CALM      29.86R
$$
MNZ078>079-086>088-094>096-230300-
   Southeast Minnesota

CITY           SKY/WX    TMP DP  RH WIND       PRES   REMARKS
ROCHESTER      PTCLDY    74  72  93 W7        29.85R
RED WING       CLEAR     75  72  88 CALM      29.80R
STANTON        CLEAR     76  67  73 NW3       29.82R
DODGE CENTER   CLEAR     77  70  78 MISG      29.85
WINONA         CLOUDY    73  70  88 SE5       29.82R
AUSTIN         PTCLDY    75  70  83 CALM      29.85R
PRESTON        CLOUDY    75  68  79 NW6       29.85S
$$
ABBREVIATIONS USED IN REMARKS
   TC - TEMPERATURES IN CELSIUS
  WCI - WIND CHILL INDEX
   HX - HEAT INDEX
  VSB - VISIBILITY
$$




USA.gov is the U.S. government's official web portal to all federal, state and local government web resources and services.